Location: Shenandoah County Park
(38.9356°N, 78.4524°W)
Time: 01:48:17
(UTC-05:00)

A-11 Canister half - Pass Details

Date: 05 December 2023
Orbit: 1526 x 1682 km, 47.3° (Epoch: 01 March)

Event Time Altitude Azimuth Distance (km) Brightness Sun altitude
Rises 21:01:50 0° 268° (W) 4,931 12.3 -47.9°
Reaches altitude 10° 21:05:08 10° 272° (W) 3,943 11.6 -48.6°
Enters shadow 21:11:31 40° 296° (WNW) 2,298 10.0 -49.8°
